Date String (YYYY-MM-DD hh:mm:ss) UTC,Instrument flags,absolute air pressure of the measurement (hPa),sample flow rate (lpm),inlet stack bypass flow (lpm),air temperature of the measurement (°C),ambient temperature measured by the external sensor (°C),aerosol sample conditioner tube jacket temperature (°C),OPC LED temperature (°C),internal box temperature (°C),relative humidity of the measurement (%),span deviation,mass concentration of particles derived from Lorenz-Mie calculation of OPC scattering (μg/m³),mass concentration of particles derived from Lorenz-Mie calculation of OPC scattering (μg/m³),mass concentration of particles derived from Lorenz-Mie calculation of OPC scattering (μg/m³)
DateTimeUTC,F1_M11,P_M11,Q1_M11,Q2_M11,T1_M11,T2_M11,T3_M11,T4_M11,T5_M11,U1_M11,ZSPAN_M11,X2_M11,X0_M11,X1_M11
2023-10-14 04:00:00,SystemResetWarning,0836.8,5.02,000.00,028.8,027.2,000.0,037.3,030.3,13.0,0000.0,0004.05,0008.02,0003.57
2023-10-14 04:01:00,SystemResetWarning,0836.8,5.00,000.00,028.8,027.2,000.0,037.3,030.3,13.0,0000.0,0004.02,0007.98,0003.55
2023-10-14 04:02:00,SystemResetWarning,0836.8,5.00,000.00,028.7,027.2,000.0,037.3,030.3,13.1,0000.0,0003.97,0008.45,0003.53
2023-10-14 04:03:00,SystemResetWarning,0836.8,5.00,000.00,028.7,027.2,000.0,037.2,030.3,13.1,0000.0,0003.97,0008.31,0003.53
2023-10-14 04:04:00,SystemResetWarning,0836.8,5.00,000.00,028.7,027.2,000.0,037.2,030.3,13.1,0000.0,0003.96,0008.25,0003.52
2023-10-14 04:05:00,SystemResetWarning,0836.8,5.00,000.00,028.7,027.2,000.0,037.3,030.3,13.1,0000.0,0003.96,0008.28,0003.52
2023-10-14 04:06:00,SystemResetWarning,0836.8,5.00,000.00,028.7,027.2,000.0,037.2,030.3,13.1,0000.0,0003.98,0008.86,0003.52
2023-10-14 04:07:00,SystemResetWarning,0836.8,5.00,000.00,028.7,027.2,000.0,037.2,030.3,13.1,0000.0,0003.95,0009.18,0003.52
2023-10-14 04:08:00,SystemResetWarning,0836.8,4.99,000.00,028.7,027.2,000.0,037.2,030.3,13.1,0000.0,0003.93,0010.18,0003.52
2023-10-14 04:09:00,SystemResetWarning,0836.8,5.00,000.00,028.7,027.2,000.0,037.2,030.3,13.1,0000.0,0003.89,0009.96,0003.53
2023-10-14 04:10:00,SystemResetWarning,0836.8,5.00,000.00,028.7,027.2,000.0,037.2,030.3,13.1,0000.0,0003.88,0009.95,0003.52
2023-10-14 04:11:00,SystemResetWarning,0836.8,5.01,000.00,028.7,027.2,000.0,037.2,030.3,13.1,0000.0,0003.84,0009.80,0003.52
2023-10-14 04:12:00,SystemResetWarning,0836.8,5.00,000.00,028.7,027.2,000.0,037.2,030.3,13.1,0000.0,0003.83,0009.51,0003.55
2023-10-14 04:13:00,SystemResetWarning,0836.8,5.00,000.00,028.7,027.2,000.0,037.2,030.3,13.1,0000.0,0003.86,0008.84,0003.57
2023-10-14 04:14:00,SystemResetWarning,0836.8,4.99,000.00,028.7,027.2,000.0,037.2,030.3,13.1,0000.0,0003.86,0009.60,0003.57
2023-10-14 04:15:00,SystemResetWarning,0836.8,4.98,000.00,028.7,027.1,000.0,037.2,030.2,13.1,0000.0,0003.87,0009.78,0003.58
2023-10-14 04:16:00,SystemResetWarning,0836.7,5.01,000.00,028.7,027.1,000.0,037.2,030.2,13.1,0000.0,0003.89,0009.78,0003.57
2023-10-14 04:17:00,SystemResetWarning,0836.8,5.01,000.00,028.6,027.1,000.0,037.2,030.2,13.1,0000.0,0003.87,0009.35,0003.55
2023-10-14 04:18:00,SystemResetWarning,0836.8,5.01,000.00,028.6,027.1,000.0,037.1,030.2,13.1,0000.0,0003.87,0008.92,0003.55
2023-10-14 04:19:00,SystemResetWarning,0836.8,5.00,000.00,028.6,027.1,000.0,037.1,030.2,13.1,0000.0,0003.87,0007.91,0003.55
2023-10-14 04:20:00,SystemResetWarning,0836.8,5.00,000.00,028.6,027.1,000.0,037.1,030.2,13.2,0000.0,0003.90,0007.97,0003.55
2023-10-14 04:21:00,SystemResetWarning,0836.8,4.99,000.00,028.6,027.1,000.0,037.1,030.2,13.2,0000.0,0003.90,0007.90,0003.55
2023-10-14 04:22:00,SystemResetWarning,0836.8,4.99,000.00,028.6,027.1,000.0,037.1,030.1,13.2,0000.0,0003.92,0007.92,0003.56
2023-10-14 04:23:00,SystemResetWarning,0836.8,5.01,000.00,028.6,027.0,000.0,037.1,030.1,13.2,0000.0,0003.95,0008.10,0003.56
2023-10-14 04:24:00,SystemResetWarning,0836.7,5.02,000.00,028.6,027.0,000.0,037.1,030.1,13.2,0000.0,0003.94,0008.42,0003.56
2023-10-14 04:25:00,SystemResetWarning,0836.7,5.00,000.00,028.6,027.0,000.0,037.1,030.1,13.2,0000.0,0003.94,0007.75,0003.57
2023-10-14 04:26:00,SystemResetWarning,0836.6,4.99,000.00,028.6,027.0,000.0,037.1,030.1,13.2,0000.0,0003.97,0007.80,0003.58
2023-10-14 04:27:00,SystemResetWarning,0836.6,4.99,000.00,028.5,027.0,000.0,037.1,030.1,13.2,0000.0,0003.96,0008.39,0003.59
2023-10-14 04:28:00,SystemResetWarning,0836.6,5.00,000.00,028.5,027.0,000.0,037.1,030.1,13.2,0000.0,0003.95,0008.36,0003.60
2023-10-14 04:29:00,SystemResetWarning,0836.6,5.01,000.00,028.5,027.0,000.0,037.1,030.1,13.2,0000.0,0003.93,0008.30,0003.61
2023-10-14 04:30:00,SystemResetWarning,0836.6,5.01,000.00,028.5,027.0,000.0,037.1,030.1,13.2,0000.0,0003.97,0008.30,0003.61
2023-10-14 04:31:00,SystemResetWarning,0836.7,5.01,000.00,028.5,026.9,000.0,037.1,030.1,13.2,0000.0,0003.97,0008.15,0003.62
2023-10-14 04:32:00,SystemResetWarning,0836.7,5.00,000.00,028.5,026.9,000.0,037.0,030.0,13.2,0000.0,0003.98,0008.59,0003.62
2023-10-14 04:33:00,SystemResetWarning,0836.7,5.00,000.00,028.5,026.9,000.0,037.0,030.0,13.2,0000.0,0003.96,0008.80,0003.62
2023-10-14 04:34:00,SystemResetWarning,0836.7,5.00,000.00,028.5,026.9,000.0,037.0,030.0,13.2,0000.0,0003.94,0008.80,0003.61
2023-10-14 04:35:00,SystemResetWarning,0836.7,5.00,000.00,028.5,026.9,000.0,037.0,030.1,13.2,0000.0,0003.94,0008.38,0003.61
2023-10-14 04:36:00,SystemResetWarning,0836.7,5.00,000.00,028.5,026.9,000.0,037.0,030.1,13.2,0000.0,0003.96,0008.42,0003.60
2023-10-14 04:37:00,SystemResetWarning,0836.6,5.00,000.00,028.5,026.9,000.0,037.0,030.0,13.2,0000.0,0003.95,0008.39,0003.59
2023-10-14 04:38:00,SystemResetWarning,0836.6,4.99,000.00,028.5,026.9,000.0,037.0,030.0,13.2,0000.0,0003.94,0007.54,0003.58
2023-10-14 04:39:00,SystemResetWarning,0836.6,5.00,000.00,028.5,026.9,000.0,037.0,030.0,13.2,0000.0,0003.93,0007.52,0003.58
2023-10-14 04:40:00,SystemResetWarning,0836.6,5.01,000.00,028.5,026.9,000.0,036.9,030.0,13.3,0000.0,0003.94,0008.34,0003.57
2023-10-14 04:41:00,SystemResetWarning,0836.6,5.01,000.00,028.4,026.9,000.0,036.9,030.0,13.3,0000.0,0003.95,0008.50,0003.56
2023-10-14 04:42:00,SystemResetWarning,0836.6,5.00,000.00,028.5,026.9,000.0,036.9,030.0,13.2,0000.0,0003.92,0008.77,0003.55
2023-10-14 04:43:00,SystemResetWarning,0836.6,5.00,000.00,028.5,026.9,000.0,036.9,030.0,13.2,0000.0,0003.89,0008.70,0003.55
2023-10-14 04:44:00,SystemResetWarning,0836.6,5.00,000.00,028.4,026.9,000.0,036.9,030.0,13.3,0000.0,0003.87,0008.12,0003.56
2023-10-14 04:45:00,SystemResetWarning,0836.6,5.00,000.00,028.4,026.9,000.0,036.9,030.0,13.2,0000.0,0003.89,0008.94,0003.56
2023-10-14 04:46:00,SystemResetWarning,0836.6,4.99,000.00,028.4,026.9,000.0,036.9,030.0,13.2,0000.0,0003.91,0009.11,0003.56
2023-10-14 04:47:00,SystemResetWarning,0836.6,4.99,000.00,028.4,026.9,000.0,036.9,030.0,13.3,0000.0,0003.94,0009.15,0003.57
2023-10-14 04:48:00,SystemResetWarning,0836.6,5.00,000.00,028.4,026.9,000.0,036.9,030.0,13.3,0000.0,0003.92,0009.03,0003.57
2023-10-14 04:49:00,SystemResetWarning,0836.6,5.01,000.00,028.4,026.9,000.0,036.9,030.0,13.3,0000.0,0003.93,0009.07,0003.57
2023-10-14 04:50:00,SystemResetWarning,0836.6,5.00,000.00,028.4,026.9,000.0,036.9,030.0,13.3,0000.0,0003.93,0009.00,0003.57
2023-10-14 04:51:00,SystemResetWarning,0836.6,5.01,000.00,028.4,026.9,000.0,036.9,030.0,13.2,0000.0,0003.92,0008.21,0003.57
2023-10-14 04:52:00,SystemResetWarning,0836.6,5.00,000.00,028.4,026.9,000.0,036.9,030.0,13.3,0000.0,0003.88,0007.99,0003.57
2023-10-14 04:53:00,SystemResetWarning,0836.6,4.99,000.00,028.4,026.9,000.0,036.9,030.0,13.3,0000.0,0003.87,0007.59,0003.57
2023-10-14 04:54:00,SystemResetWarning,0836.6,4.99,000.00,028.4,026.9,000.0,036.9,030.0,13.3,0000.0,0003.89,0008.08,0003.56
2023-10-14 04:55:00,SystemResetWarning,0836.6,5.00,000.00,028.4,026.9,000.0,036.9,030.0,13.3,0000.0,0003.90,0009.08,0003.55
2023-10-14 04:56:00,SystemResetWarning,0836.6,5.00,000.00,028.4,026.9,000.0,036.9,030.0,13.3,0000.0,0003.89,0008.35,0003.53
2023-10-14 04:57:00,SystemResetWarning,0836.7,5.00,000.00,028.4,026.9,000.0,036.9,030.0,13.3,0000.0,0003.87,0008.45,0003.52
2023-10-14 04:58:00,SystemResetWarning,0836.6,5.00,000.00,028.4,026.9,000.0,036.9,030.0,13.3,0000.0,0003.82,0008.36,0003.50
2023-10-14 04:59:00,SystemResetWarning,0836.6,5.00,000.00,028.4,026.9,000.0,036.9,030.0,13.3,0000.0,0003.79,0008.32,0003.48
